When you browse on this site, cookies collect data to enhance your experience and personalize the content and advertising you see.
Visit our Privacy Policy to learn more. By continuing to use the site, you agree to this use of cookies and data.
  • In Österreich
  • Länderverzeichnis
  • Für 7 Tage
  • Wassertemperatur
  • Wetterkarte
  • News
  • Widgets
  • user-avatar
    Anmelden

    Stündliche Wetter Qala i Naw

    Heute, 20 Februar, Donnerstag

    Zeit Temperatur Niederschläge Wind Luftdruck Luftfeuchtigkeit
    00:00 +3°C° 0 mm 0 m/S 684 mmHg 66%
    01:00 +2°C° 0 mm 0 m/S 683 mmHg 65%
    02:00 +4°C° 0 mm 1 m/S 683 mmHg 60%
    03:00 +4°C° 0 mm 1 m/S 682 mmHg 54%
    04:00 +3°C° 0 mm 2 m/S 682 mmHg 48%
    05:00 +3°C° 0 mm 2 m/S 682 mmHg 42%
    06:00 +4°C° 0 mm 2 m/S 682 mmHg 36%
    07:00 +4°C° 0 mm 2 m/S 682 mmHg 30%
    08:00 +7°C° 0 mm 2 m/S 682 mmHg 26%
    09:00 +9°C° 0 mm 2 m/S 682 mmHg 22%
    10:00 +13°C° 0 mm 2 m/S 683 mmHg 19%
    11:00 +15°C° 0 mm 2 m/S 682 mmHg 18%
    12:00 +16°C° 0 mm 2 m/S 682 mmHg 18%
    13:00 +18°C° 0 mm 1 m/S 681 mmHg 18%
    14:00 +18°C° 0 mm 1 m/S 681 mmHg 21%
    15:00 +19°C° 0 mm 1 m/S 681 mmHg 25%
    16:00 +19°C° 0 mm 1 m/S 681 mmHg 29%
    17:00 +16°C° 0 mm 2 m/S 680 mmHg 30%
    18:00 +14°C° 0 mm 2 m/S 680 mmHg 31%
    19:00 +12°C° 0 mm 2 m/S 680 mmHg 32%
    20:00 +12°C° 0 mm 2 m/S 680 mmHg 31%
    21:00 +12°C° 0 mm 2 m/S 680 mmHg 31%
    22:00 +12°C° 0 mm 2 m/S 680 mmHg 30%
    23:00 +10°C° 0 mm 2 m/S 680 mmHg 30%

    Morgen, 21 Februar, Freitag

    Zeit Temperatur Niederschläge Wind Luftdruck Luftfeuchtigkeit
    00:00 +10°C° 0 mm 2 m/S 679 mmHg 30%
    01:00 +9°C° 0 mm 2 m/S 679 mmHg 30%
    02:00 +9°C° 0 mm 3 m/S 679 mmHg 29%
    03:00 +10°C° 0 mm 4 m/S 679 mmHg 28%
    04:00 +9°C° 0 mm 5 m/S 679 mmHg 27%
    05:00 +9°C° 0.1 mm 6 m/S 679 mmHg 34%
    06:00 +9°C° 0.1 mm 6 m/S 679 mmHg 41%
    07:00 +9°C° 0.1 mm 7 m/S 680 mmHg 49%
    08:00 +10°C° 0 mm 6 m/S 680 mmHg 48%
    09:00 +12°C° 0 mm 4 m/S 681 mmHg 47%
    10:00 +13°C° 0 mm 3 m/S 681 mmHg 47%
    17:00 +15°C° 0 mm 5 m/S 681 mmHg 46%
    18:00 +14°C° 0 mm 4 m/S 682 mmHg 49%
    19:00 +13°C° 0 mm 3 m/S 683 mmHg 53%
    20:00 +13°C° 0 mm 2 m/S 683 mmHg 57%
    21:00 +12°C° 0 mm 2 m/S 683 mmHg 62%
    22:00 +11°C° 0 mm 1 m/S 684 mmHg 66%
    23:00 +10°C° 0 mm 1 m/S 684 mmHg 69%

    übermorgen, 22 Februar, Samstag

    Zeit Temperatur Niederschläge Wind Luftdruck Luftfeuchtigkeit
    00:00 +10°C° 0 mm 1 m/S 684 mmHg 71%
    01:00 +9°C° 0 mm 1 m/S 684 mmHg 73%
    02:00 +9°C° 0 mm 1 m/S 684 mmHg 72%
    03:00 +9°C° 0 mm 1 m/S 684 mmHg 72%
    04:00 +8°C° 0 mm 1 m/S 683 mmHg 71%
    05:00 +9°C° 0 mm 1 m/S 684 mmHg 67%
    06:00 +8°C° 0 mm 2 m/S 684 mmHg 64%
    07:00 +8°C° 0 mm 2 m/S 685 mmHg 60%
    08:00 +10°C° 0 mm 2 m/S 685 mmHg 52%
    09:00 +14°C° 0 mm 2 m/S 686 mmHg 44%
    10:00 +16°C° 0 mm 2 m/S 686 mmHg 36%
    11:00 +17°C° 0 mm 2 m/S 686 mmHg 34%
    12:00 +18°C° 0 mm 2 m/S 686 mmHg 31%
    13:00 +20°C° 0 mm 2 m/S 685 mmHg 28%
    14:00 +20°C° 0 mm 2 m/S 685 mmHg 30%
    15:00 +20°C° 0 mm 2 m/S 685 mmHg 31%
    16:00 +20°C° 0 mm 2 m/S 685 mmHg 32%
    17:00 +18°C° 0 mm 2 m/S 685 mmHg 40%
    18:00 +16°C° 0 mm 1 m/S 684 mmHg 48%
    19:00 +14°C° 0 mm 1 m/S 684 mmHg 57%
    20:00 +14°C° 0 mm 1 m/S 684 mmHg 54%
    21:00 +14°C° 0 mm 2 m/S 684 mmHg 51%
    22:00 +14°C° 0 mm 2 m/S 684 mmHg 48%
    23:00 +13°C° 0 mm 2 m/S 684 mmHg 47%

    23 Februar, Sonntag

    Zeit Temperatur Niederschläge Wind Luftdruck Luftfeuchtigkeit
    00:00 +12°C° 0 mm 3 m/S 684 mmHg 46%
    01:00 +12°C° 0 mm 3 m/S 683 mmHg 44%
    02:00 +11°C° 0 mm 3 m/S 683 mmHg 44%
    03:00 +11°C° 0 mm 3 m/S 682 mmHg 44%
    04:00 +10°C° 0 mm 3 m/S 682 mmHg 43%
    05:00 +10°C° 0 mm 3 m/S 682 mmHg 43%
    06:00 +11°C° 0 mm 3 m/S 682 mmHg 42%
    07:00 +11°C° 0 mm 3 m/S 682 mmHg 42%
    08:00 +13°C° 0 mm 4 m/S 683 mmHg 39%
    09:00 +15°C° 0 mm 4 m/S 683 mmHg 36%
    10:00 +18°C° 0 mm 4 m/S 684 mmHg 33%
    11:00 +19°C° 0 mm 4 m/S 683 mmHg 32%
    12:00 +21°C° 0 mm 5 m/S 683 mmHg 31%
    13:00 +22°C° 0 mm 5 m/S 683 mmHg 30%
    14:00 +22°C° 0 mm 5 m/S 683 mmHg 32%
    15:00 +21°C° 0 mm 4 m/S 682 mmHg 33%
    16:00 +21°C° 0 mm 4 m/S 682 mmHg 35%
    17:00 +20°C° 0 mm 3 m/S 682 mmHg 40%
    18:00 +18°C° 0 mm 3 m/S 682 mmHg 45%
    19:00 +17°C° 0 mm 3 m/S 683 mmHg 50%
    20:00 +16°C° 0 mm 2 m/S 683 mmHg 56%
    21:00 +15°C° 0 mm 2 m/S 683 mmHg 62%
    22:00 +13°C° 0 mm 2 m/S 683 mmHg 68%
    23:00 +13°C° 0 mm 1 m/S 682 mmHg 70%

    24 Februar, Montag

    Zeit Temperatur Niederschläge Wind Luftdruck Luftfeuchtigkeit
    00:00 +12°C° 0 mm 1 m/S 682 mmHg 72%
    01:00 +12°C° 0 mm 1 m/S 682 mmHg 74%
    02:00 +12°C° 0 mm 1 m/S 682 mmHg 71%
    03:00 +12°C° 0 mm 2 m/S 681 mmHg 68%
    04:00 +12°C° 0 mm 2 m/S 681 mmHg 65%
    05:00 +12°C° 0 mm 2 m/S 681 mmHg 64%
    06:00 +12°C° 0 mm 2 m/S 682 mmHg 62%
    07:00 +12°C° 0 mm 2 m/S 682 mmHg 60%
    08:00 +14°C° 0 mm 2 m/S 682 mmHg 53%
    09:00 +16°C° 0 mm 3 m/S 682 mmHg 46%
    10:00 +18°C° 0 mm 3 m/S 683 mmHg 39%
    11:00 +19°C° 0 mm 3 m/S 683 mmHg 34%
    12:00 +20°C° 0 mm 3 m/S 682 mmHg 30%
    13:00 +21°C° 0 mm 3 m/S 682 mmHg 26%
    14:00 +22°C° 0 mm 3 m/S 682 mmHg 25%
    15:00 +22°C° 0 mm 3 m/S 681 mmHg 24%
    16:00 +22°C° 0 mm 4 m/S 681 mmHg 23%
    17:00 +20°C° 0 mm 3 m/S 681 mmHg 27%
    18:00 +19°C° 0 mm 3 m/S 681 mmHg 31%
    19:00 +17°C° 0 mm 3 m/S 680 mmHg 34%
    20:00 +17°C° 0 mm 3 m/S 681 mmHg 36%
    21:00 +16°C° 0 mm 3 m/S 681 mmHg 37%
    22:00 +15°C° 0 mm 4 m/S 681 mmHg 38%
    23:00 +15°C° 0 mm 4 m/S 681 mmHg 39%

    25 Februar, Dienstag

    Zeit Temperatur Niederschläge Wind Luftdruck Luftfeuchtigkeit
    00:00 +15°C° 0 mm 4 m/S 680 mmHg 39%
    01:00 +14°C° 0 mm 5 m/S 680 mmHg 39%
    02:00 +14°C° 0 mm 5 m/S 680 mmHg 40%
    03:00 +14°C° 0 mm 5 m/S 680 mmHg 41%
    04:00 +14°C° 0 mm 5 m/S 679 mmHg 42%
    05:00 +14°C° 0 mm 5 m/S 679 mmHg 42%
    06:00 +14°C° 0 mm 5 m/S 679 mmHg 41%
    07:00 +14°C° 0 mm 5 m/S 679 mmHg 41%
    08:00 +16°C° 0 mm 5 m/S 679 mmHg 38%
    09:00 +19°C° 0 mm 6 m/S 680 mmHg 35%
    10:00 +20°C° 0 mm 6 m/S 680 mmHg 32%
    11:00 +21°C° 0 mm 7 m/S 680 mmHg 32%
    12:00 +21°C° 0 mm 7 m/S 679 mmHg 33%
    13:00 +22°C° 0 mm 7 m/S 679 mmHg 34%
    14:00 +21°C° 0 mm 7 m/S 679 mmHg 36%
    15:00 +21°C° 0 mm 7 m/S 678 mmHg 38%
    16:00 +20°C° 0 mm 8 m/S 677 mmHg 40%
    17:00 +20°C° 0 mm 7 m/S 677 mmHg 40%
    18:00 +18°C° 0 mm 7 m/S 677 mmHg 40%
    19:00 +18°C° 0 mm 7 m/S 676 mmHg 40%
    20:00 +17°C° 0 mm 7 m/S 676 mmHg 40%
    21:00 +17°C° 0 mm 7 m/S 676 mmHg 40%
    22:00 +17°C° 0 mm 7 m/S 675 mmHg 40%
    23:00 +17°C° 0 mm 8 m/S 674 mmHg 40%
    Mehr zeigen